Location: Unspecified
(42.0334°N, 93.6656°W)
Time: 08:41:17
(UTC-05:00)

Amateur Radio Satellites - All Passes

Search period start: 01 September 2014 08:11
Search period end: 02 September 2014 08:11
Location: Unspecified, 42.0334°N, 93.6656°W

Satellite Date Start Highest point End Downlink Frequencies (MHz)
Time Altitude Azimuth
Hamsat 01 Sep 08:21:16 08:24:27 20° 294° (WNW) 08:27:36 145.90 MHz
RS-15 01 Sep 09:10:10 09:21:09 67° 308° (NW) 09:32:04 29.354 - 29.394 USB, Beacon 29.352 USB
Saudisat 1A 01 Sep 09:19:11 09:19:25 10° 253° (WSW) 09:19:40 436.775 MHz
HO-68 01 Sep 09:20:57 09:26:49 27° 94° (E) 09:32:39 435.675 MHz FM
ISS 01 Sep 09:35:01 09:37:12 16° 132° (SE) 09:39:22 145.800 FM
SO-67 01 Sep 09:44:05 09:44:54 11° 295° (WNW) 09:45:42 435.3500 MHz FM
KITSAT 1 01 Sep 09:52:18 09:59:54 47° 249° (WSW) 10:07:27 435.175 FM
UKube-1 01 Sep 10:14:23 10:18:20 33° 98° (E) 10:22:15 145.840 MHz, 145.915 MHz
Oscar 11 01 Sep 10:18:56 10:22:35 25° 95° (E) 10:26:13 145.825 FM, Beacon 2401.500 USB
FUNcube-1 01 Sep 10:49:13 10:52:50 23° 94° (E) 10:56:28 145.950 - 145.970 MHz USB
HO-68 01 Sep 11:07:54 11:14:54 60° 292° (WNW) 11:21:53 435.675 MHz FM
ISS 01 Sep 11:10:19 11:13:36 61° 328° (NNW) 11:16:55 145.800 FM
RS-15 01 Sep 11:27:15 11:36:03 27° 338° (NNW) 11:44:55 29.354 - 29.394 USB, Beacon 29.352 USB
UKube-1 01 Sep 11:50:57 11:54:21 23° 294° (WNW) 11:57:45 145.840 MHz, 145.915 MHz
Oscar 11 01 Sep 11:54:57 11:58:45 29° 291° (WNW) 12:02:31 145.825 FM, Beacon 2401.500 USB
SO-50 01 Sep 12:06:29 12:11:05 46° 51° (NE) 12:15:45 436.795 FM
MaSat-1 01 Sep 12:15:04 12:18:04 16° 101° (E) 12:21:10 437.345 MHz
FUNcube-1 01 Sep 12:25:08 12:29:17 36° 290° (WNW) 12:33:28 145.950 - 145.970 MHz USB
Oscar 16 01 Sep 12:27:20 12:29:57 14° 59° (ENE) 12:32:33 437.025 USB, Beacon 2401.1428
PANSAT 01 Sep 12:34:09 12:34:41 10° 174° (S) 12:35:13 not established
ISS 01 Sep 12:48:24 12:50:51 19° 347° (NNW) 12:53:18 145.800 FM
JAS-1B 01 Sep 12:58:06 13:05:12 25° 58° (ENE) 13:11:41 435.800 - 435.900 CW/SSB
HO-68 01 Sep 12:58:36 13:01:09 12° 312° (NW) 13:03:43 435.675 MHz FM
AO-27 01 Sep 12:58:50 13:00:44 12° 57° (ENE) 13:02:38 436.795 MHz FM
Oscar 19 01 Sep 13:28:30 13:33:25 47° 70° (ENE) 13:38:23 437.125 CW, 437.150 USB
Gurwin Techsat 1B 01 Sep 13:36:49 13:38:56 12° 58° (ENE) 13:41:03 435.225 FM
AO-Echo 01 Sep 13:42:18 13:46:37 30° 68° (ENE) 13:50:49 ?
RS-15 01 Sep 13:45:16 13:53:32 23° 14° (NNE) 14:01:55 29.354 - 29.394 USB, Beacon 29.352 USB
SO-50 01 Sep 13:47:37 13:51:24 24° 248° (WSW) 13:55:13 436.795 FM
MaSat-1 01 Sep 13:49:33 13:54:28 66° 298° (WNW) 13:59:38 437.345 MHz
UOSAT-12 01 Sep 13:56:19 14:00:53 45° 51° (NE) 14:05:22 437.025 FM, 437.400 FM
Oscar 16 01 Sep 14:03:26 14:08:36 81° 257° (WSW) 14:13:49 437.025 USB, Beacon 2401.1428
ITAMSAT 1 01 Sep 14:05:03 14:09:57 46° 70° (ENE) 14:14:52 435.822 SSB
Uribyol 2 01 Sep 14:14:21 14:19:24 59° 72° (ENE) 14:24:29 436.500 FM
TMSAT-1 01 Sep 14:24:41 14:28:52 24° 64° (ENE) 14:33:03 436.925 FM
ISS 01 Sep 14:26:15 14:28:31 17° 8° (N) 14:30:46 145.800 FM
AO-27 01 Sep 14:34:16 14:39:27 86° 75° (ENE) 14:44:39 436.795 MHz FM
AO-7 01 Sep 14:43:21 14:49:06 21° 50° (NE) 14:54:49 29.400 - 29.500 MHz
JAS-1B 01 Sep 14:45:02 14:54:51 88° 255° (WSW) 15:03:35 435.800 - 435.900 CW/SSB
Oscar 19 01 Sep 15:09:04 15:12:59 22° 267° (W) 15:16:56 437.125 CW, 437.150 USB
Gurwin Techsat 1B 01 Sep 15:12:46 15:18:05 86° 75° (ENE) 15:23:25 435.225 FM
AO-Echo 01 Sep 15:20:52 15:25:19 31° 263° (W) 15:29:40 ?
MaSat-1 01 Sep 15:30:28 15:32:30 12° 318° (NW) 15:34:33 437.345 MHz
UOSAT-12 01 Sep 15:37:06 15:40:45 23° 248° (WSW) 15:44:21 437.025 FM, 437.400 FM
ITAMSAT 1 01 Sep 15:45:42 15:49:39 22° 267° (W) 15:53:38 435.822 SSB
Uribyol 2 01 Sep 15:55:59 15:59:16 17° 269° (W) 16:02:33 436.500 FM
RS-15 01 Sep 15:58:39 16:09:21 51° 45° (NE) 16:20:23 29.354 - 29.394 USB, Beacon 29.352 USB
ISS 01 Sep 16:02:43 16:05:54 41° 28° (NNE) 16:09:05 145.800 FM
TMSAT-1 01 Sep 16:03:27 16:08:30 45° 261° (W) 16:13:34 436.925 FM
Uosat F 01 Sep 16:12:23 16:17:08 46° 70° (ENE) 16:21:55 435.120 FM
AO-27 01 Sep 16:18:11 16:19:37 11° 272° (W) 16:21:03 436.795 MHz FM
Sapphire 01 Sep 16:19:03 16:23:32 27° 108° (ESE) 16:28:02 437.095 MHz 1200 baud AX-25 AFSK
AO-7 01 Sep 16:32:24 16:40:45 85° 70° (ENE) 16:49:07 29.400 - 29.500 MHz
JAS-1B 01 Sep 16:39:21 16:46:04 21° 271° (W) 16:52:25 435.800 - 435.900 CW/SSB
JAS-2 01 Sep 16:40:50 16:42:48 12° 58° (ENE) 16:44:43 435.800 - 435.900 CW/SSB, 435.910 FM
PCSat 01 Sep 16:47:23 16:52:36 52° 114° (ESE) 16:57:51 145.825 MHz
Gurwin Techsat 1B 01 Sep 16:57:01 16:58:43 11° 272° (W) 17:00:26 435.225 FM
Hamsat 01 Sep 17:38:31 17:42:16 29° 69° (ENE) 17:46:02 145.90 MHz
ISS 01 Sep 17:39:40 17:42:31 26° 225° (SW) 17:45:21 145.800 FM
OPAL 01 Sep 17:40:29 17:45:38 56° 103° (ESE) 17:50:44 ?
Uosat F 01 Sep 17:52:23 17:56:08 21° 267° (W) 17:59:54 435.120 FM
Sapphire 01 Sep 18:01:34 18:06:43 44° 306° (NW) 18:11:55 437.095 MHz 1200 baud AX-25 AFSK
RS-15 01 Sep 18:11:14 18:21:48 53° 248° (WSW) 18:32:48 29.354 - 29.394 USB, Beacon 29.352 USB
JAS-2 01 Sep 18:21:07 18:27:13 82° 75° (ENE) 18:32:42 435.800 - 435.900 CW/SSB, 435.910 FM
AO-7 01 Sep 18:28:43 18:34:26 20° 269° (W) 18:40:12 29.400 - 29.500 MHz
PCSat 01 Sep 18:31:47 18:36:18 26° 313° (NW) 18:40:50 145.825 MHz
SO-67 01 Sep 18:43:12 18:45:34 18° 68° (ENE) 18:47:57 435.3500 MHz FM
Hamsat 01 Sep 19:14:37 19:18:12 25° 266° (W) 19:21:49 145.90 MHz
OPAL 01 Sep 19:20:19 19:24:05 21° 300° (WNW) 19:27:50 ?
STRAND 1 01 Sep 19:27:52 19:32:26 32° 97° (E) 19:36:59 ?
HO-68 01 Sep 19:51:03 19:56:18 23° 56° (ENE) 20:01:34 435.675 MHz FM
JAS-2 01 Sep 20:10:10 20:12:48 13° 269° (W) 20:15:21 435.800 - 435.900 CW/SSB, 435.910 FM
SO-67 01 Sep 20:15:28 20:18:26 26° 264° (W) 20:21:25 435.3500 MHz FM
STRAND 1 01 Sep 21:07:06 21:11:33 31° 293° (WNW) 21:16:00 ?
UKube-1 01 Sep 21:10:24 21:14:14 31° 69° (ENE) 21:18:05 145.840 MHz, 145.915 MHz
Oscar 11 01 Sep 21:14:46 21:18:06 22° 66° (ENE) 21:21:28 145.825 FM, Beacon 2401.500 USB
HO-68 01 Sep 21:36:09 21:43:17 76° 255° (WSW) 21:50:27 435.675 MHz FM
Saudisat 1A 01 Sep 21:44:05 21:47:15 20° 111° (ESE) 21:50:25 436.775 MHz
FUNcube-1 01 Sep 21:46:55 21:49:51 19° 65° (ENE) 21:52:50 145.950 - 145.970 MHz USB
MaSat-1 01 Sep 22:07:15 22:11:25 32° 54° (NE) 22:15:04 437.345 MHz
KITSAT 1 01 Sep 22:27:00 22:33:20 26° 105° (ESE) 22:39:40 435.175 FM
AO-40 01 Sep 22:46:04 04:02:40 37° 155° (SSE) 05:41:04 Beacon 2401.320
UKube-1 01 Sep 22:46:58 22:50:27 24° 265° (W) 22:53:58 145.840 MHz, 145.915 MHz
Oscar 11 01 Sep 22:50:08 22:54:05 34° 263° (W) 22:58:05 145.825 FM, Beacon 2401.500 USB
FUNcube-1 01 Sep 23:22:01 23:25:57 39° 262° (W) 23:29:59 145.950 - 145.970 MHz USB
Saudisat 1A 01 Sep 23:22:15 23:26:30 46° 308° (NW) 23:30:47 436.775 MHz
HO-68 01 Sep 23:29:23 23:32:05 12° 273° (W) 23:34:48 435.675 MHz FM
MaSat-1 01 Sep 23:44:39 23:48:11 24° 256° (WSW) 23:51:20 437.345 MHz
PCSat 01 Sep 23:54:37 23:55:14 10° 32° (NNE) 23:55:50 145.825 MHz
KITSAT 1 02 Sep 00:19:56 00:28:00 72° 304° (NW) 00:36:07 435.175 FM
Sapphire 02 Sep 01:05:56 01:10:33 27° 48° (NE) 01:15:07 437.095 MHz 1200 baud AX-25 AFSK
PCSat 02 Sep 01:34:51 01:40:05 46° 54° (NE) 01:45:17 145.825 MHz
Oscar 19 02 Sep 01:40:57 01:44:06 16° 91° (E) 01:47:13 437.125 CW, 437.150 USB
Oscar 16 02 Sep 02:15:03 02:19:48 35° 97° (E) 02:24:30 437.025 USB, Beacon 2401.1428
ITAMSAT 1 02 Sep 02:18:46 02:21:49 16° 91° (E) 02:24:52 435.822 SSB
KITSAT 1 02 Sep 02:18:58 02:24:57 22° 328° (NNW) 02:30:57 435.175 FM
SO-50 02 Sep 02:24:59 02:26:35 12° 107° (ESE) 02:28:12 436.795 FM
Uribyol 2 02 Sep 02:27:30 02:31:19 20° 93° (E) 02:35:08 436.500 FM
JAS-1B 02 Sep 02:33:27 02:38:21 22° 89° (E) 02:42:49 435.800 - 435.900 CW/SSB
AO-27 02 Sep 02:47:20 02:51:52 30° 96° (E) 02:56:22 436.795 MHz FM
Sapphire 02 Sep 02:48:59 02:54:13 50° 247° (WSW) 02:59:25 437.095 MHz 1200 baud AX-25 AFSK
Oscar 19 02 Sep 03:18:43 03:23:52 63° 287° (WNW) 03:28:59 437.125 CW, 437.150 USB
PCSat 02 Sep 03:18:47 03:23:14 26° 252° (WSW) 03:27:38 145.825 MHz
OPAL 02 Sep 03:19:58 03:22:44 15° 57° (ENE) 03:25:31 ?
AO-Echo 02 Sep 03:26:53 03:31:36 79° 103° (ESE) 03:36:20 ?
Gurwin Techsat 1B 02 Sep 03:28:56 03:33:44 34° 96° (E) 03:38:29 435.225 FM
Oscar 16 02 Sep 03:54:33 03:59:02 30° 294° (WNW) 04:03:29 437.025 USB, Beacon 2401.1428
ITAMSAT 1 02 Sep 03:56:37 04:01:46 65° 287° (WNW) 04:06:53 435.822 SSB
SO-50 02 Sep 04:02:00 04:06:28 76° 304° (NW) 04:11:04 436.795 FM
Uribyol 2 02 Sep 04:06:03 04:11:04 50° 289° (WNW) 04:16:04 436.500 FM
UOSAT-12 02 Sep 04:11:05 04:12:36 11° 107° (ESE) 04:14:06 437.025 FM, 437.400 FM
TMSAT-1 02 Sep 04:18:32 04:23:50 71° 102° (ESE) 04:29:07 436.925 FM
Uosat F 02 Sep 04:21:26 04:23:46 13° 90° (E) 04:26:06 435.120 FM
KITSAT 1 02 Sep 04:21:30 04:24:10 12° 358° (N) 04:26:50 435.175 FM
JAS-1B 02 Sep 04:23:07 04:29:36 53° 292° (WNW) 04:35:16 435.800 - 435.900 CW/SSB
AO-27 02 Sep 04:26:43 04:31:22 35° 293° (WNW) 04:36:01 436.795 MHz FM
AO-7 02 Sep 04:34:23 04:41:10 27° 94° (E) 04:47:54 29.400 - 29.500 MHz
OPAL 02 Sep 04:55:52 05:00:56 79° 254° (WSW) 05:06:07 ?
AO-Echo 02 Sep 05:07:57 05:09:44 12° 300° (WNW) 05:11:31 ?
Gurwin Techsat 1B 02 Sep 05:08:58 05:13:37 32° 293° (WNW) 05:18:16 435.225 FM
SO-50 02 Sep 05:45:35 05:47:51 14° 325° (NW) 05:50:09 436.795 FM
UOSAT-12 02 Sep 05:47:24 05:52:02 82° 304° (NW) 05:56:46 437.025 FM, 437.400 FM
Uosat F 02 Sep 05:58:04 06:03:04 72° 286° (WNW) 06:08:02 435.120 FM
TMSAT-1 02 Sep 05:59:57 06:03:10 17° 300° (WNW) 06:06:22 436.925 FM
Saudisat 1A 02 Sep 06:09:33 06:12:58 21° 43° (NE) 06:16:23 436.775 MHz
KITSAT 1 02 Sep 06:17:59 06:23:34 20° 29° (NNE) 06:29:07 435.175 FM
RS-15 02 Sep 06:25:36 06:34:00 26° 103° (ESE) 06:42:16 29.354 - 29.394 USB, Beacon 29.352 USB
AO-7 02 Sep 06:26:19 06:34:31 67° 293° (WNW) 06:42:40 29.400 - 29.500 MHz
STRAND 1 02 Sep 06:44:08 06:49:01 49° 71° (ENE) 06:53:56 ?
Hamsat 02 Sep 06:59:07 07:03:24 55° 100° (E) 07:07:37 145.90 MHz
JAS-2 02 Sep 07:13:48 07:19:05 68° 102° (ESE) 07:24:49 435.800 - 435.900 CW/SSB, 435.910 FM
UOSAT-12 02 Sep 07:30:16 07:32:56 15° 324° (NW) 07:35:38 437.025 FM, 437.400 FM
SO-67 02 Sep 07:38:56 07:41:28 19° 94° (E) 07:43:59 435.3500 MHz FM
Saudisat 1A 02 Sep 07:48:32 07:52:50 51° 242° (WSW) 07:57:05 436.775 MHz
